CW1961 Weather Reports


Display with metric or nautical units.
time (UTC)temp
F
wind
direction
speed
MPH
gust
MPH
rain 1hr
in
rain 24hr
in
rain mn
in
humidity
%
barometer
mb
20190116011326 41 166 4.0 8.0 0.00 0.00 0.00 88 1024.2
20190116010314 41 140 5.0 9.0 0.00 0.00 0.00 88 1024.0
20190116005318 41 137 4.0 7.0 0.00 0.00 0.00 88 1024.0
20190116004319 41 152 4.0 7.0 0.00 0.00 0.00 88 1023.8
20190116003320 41 132 4.0 6.0 0.00 0.00 0.00 87 1023.8
20190116002327 41 159 3.0 5.0 0.00 0.00 0.00 86 1023.7
20190116001310 42 130 3.0 5.0 0.00 0.00 0.00 86 1023.7
20190116000312 42 157 3.0 7.0 0.00 0.00 0.00 85 1023.5
20190115235314 43 136 3.0 7.0 0.00 0.00 0.00 84 1023.4
20190115234324 43 140 4.0 8.0 0.00 0.00 0.00 83 1023.4
20190115233326 44 154 4.0 7.0 0.00 0.00 0.00 81 1023.2
20190115232329 46 144 4.0 7.0 0.00 0.00 0.00 79 1023.3
20190115231314 47 142 4.0 9.0 0.00 0.00 0.00 77 1023.2
20190115230321 48 144 5.0 11.0 0.00 0.00 0.00 75 1023.3
20190115225323 50 151 6.0 11.0 0.00 0.00 0.00 73 1023.1
20190115224318 50 181 5.0 11.0 0.00 0.00 0.00 72 1023.2
20190115223320 51 186 6.0 11.0 0.00 0.00 0.00 72 1023.3
20190115222327 51 182 7.0 12.0 0.00 0.00 0.00 71 1023.3
20190115221311 51 142 6.0 11.0 0.00 0.00 0.00 70 1023.4
20190115220311 52 180 7.0 9.0 0.00 0.00 0.00 69 1023.5
20190115215315 52 171 7.0 15.0 0.00 0.00 0.00 69 1023.7
20190115214322 52 179 7.0 12.0 0.00 0.00 0.00 68 1023.6
20190115213320 52 154 7.0 13.0 0.00 0.00 0.00 69 1023.6
20190115212322 52 192 9.0 13.0 0.00 0.00 0.00 69 1023.7
20190115211322 52 194 5.0 10.0 0.00 0.00 0.00 70 1023.8
20190115210320 52 217 6.0 10.0 0.00 0.00 0.00 71 1023.8
20190115205327 51 182 7.0 10.0 0.00 0.00 0.00 70 1023.9
20190115204329 51 216 6.0 12.0 0.00 0.00 0.00 71 1023.9
20190115203311 50 173 6.0 10.0 0.00 0.00 0.00 72 1023.9
20190115202313 50 173 8.0 12.0 0.00 0.00 0.00 72 1024.0
20190115201319 50 151 7.0 10.0 0.00 0.00 0.00 74 1024.0
20190115200321 49 188 9.0 12.0 0.00 0.00 0.00 74 1024.1
20190115195324 48 196 7.0 11.0 0.00 0.00 0.00 76 1024.1
20190115194320 47 190 8.0 11.0 0.00 0.00 0.00 75 1024.2
20190115193327 47 192 6.0 11.0 0.00 0.00 0.00 75 1024.4
20190115192330 47 170 8.0 12.0 0.00 0.00 0.00 75 1024.7
20190115191313 47 192 9.0 13.0 0.00 0.00 0.00 77 1024.9
20190115190315 46 189 6.0 10.0 0.00 0.00 0.00 78 1025.1
20190115185322 46 183 7.0 12.0 0.00 0.00 0.00 78 1025.4
20190115184324 45 210 6.0 10.0 0.00 0.00 0.00 80 1025.8
20190115183325 44 184 7.0 15.0 0.00 0.00 0.00 79 1026.2
20190115182326 44 205 8.0 14.0 0.00 0.00 0.00 81 1026.4
20190115181311 43 190 6.0 10.0 0.00 0.00 0.00 82 1026.6
20190115180331 43 190 7.0 10.0 0.00 0.00 0.00 82 1026.7
20190115175325 42 199 7.0 11.0 0.00 0.00 0.00 83 1027.0
20190115174328 42 209 6.0 13.0 0.00 0.00 0.00 86 1027.2
20190115173312 41 202 9.0 12.0 0.00 0.00 0.00 85 1027.4
20190115172315 40 202 7.0 10.0 0.00 0.00 0.00 86 1027.6
20190115171319 40 160 8.0 11.0 0.00 0.00 0.00 88 1027.8
20190115170321 39 146 7.0 11.0 0.00 0.00 0.00 90 1027.8
20190115165323 38 166 7.0 12.0 0.00 0.00 0.00 91 1027.9
20190115164329 37 180 8.0 12.0 0.00 0.00 0.00 91 1028.0
20190115163310 36 204 10.0 14.0 0.00 0.00 0.00 91 1028.1
20190115162313 36 219 6.0 11.0 0.00 0.00 0.00 95 1028.3
20190115161315 35 200 8.0 11.0 0.00 0.00 0.00 95 1028.4
20190115160323 33 181 8.0 12.0 0.00 0.00 0.00 95 1028.3
20190115155326 33 150 11.0 14.0 0.00 0.00 0.00 96 1028.4
20190115154330 32 192 6.0 13.0 0.00 0.00 0.00 96 1028.3
20190115153312 32 173 7.0 10.0 0.00 0.00 0.00 97 1028.2
20190115152319 31 180 6.0 10.0 0.00 0.00 0.00 97 1028.1
20190115151321 30 175 7.0 12.0 0.00 0.00 0.00 97 1028.0
20190115150326 30 167 7.0 11.0 0.00 0.00 0.00 96 1028.0
20190115145328 30 197 5.0 9.0 0.00 0.00 0.00 97 1027.9
20190115144312 29 151 4.0 7.0 0.00 0.00 0.00 97 1027.7
20190115143315 29 135 4.0 8.0 0.00 0.00 0.00 97 1027.7
20190115142316 28 150 4.0 7.0 0.00 0.00 0.00 97 1027.7
20190115141318 28 154 4.0 7.0 0.00 0.00 0.00 97 1027.7
20190115140324 27 149 3.0 6.0 0.00 0.00 0.00 97 1027.7
20190115135328 27 150 4.0 7.0 0.00 0.00 0.00 97 1027.7
20190115134313 27 175 4.0 6.0 0.00 0.00 0.00 97 1027.8
20190115133315 27 163 4.0 6.0 0.00 0.00 0.00 96 1027.7
20190115132321 27 170 3.0 6.0 0.00 0.00 0.00 96 1027.7
20190115131326 27 150 4.0 7.0 0.00 0.00 0.00 97 1027.7
20190115130330 27 148 5.0 6.0 0.00 0.00 0.00 97 1027.6
20190115125311 27 194 5.0 7.0 0.00 0.00 0.00 97 1027.6
20190115124317 27 174 4.0 6.0 0.00 0.00 0.00 97 1027.4
20190115123321 27 169 4.0 5.0 0.00 0.00 0.00 97 1027.2
20190115122321 27 164 3.0 7.0 0.00 0.00 0.00 97 1027.3
20190115121324 27 186 3.0 6.0 0.00 0.00 0.00 96 1027.4
20190115120310 27 152 3.0 6.0 0.00 0.00 0.00 97 1027.5
20190115115315 27 157 3.0 5.0 0.00 0.00 0.00 97 1027.4
20190115114318 27 140 3.0 7.0 0.00 0.00 0.00 97 1027.5
20190115113320 27 153 5.0 6.0 0.00 0.00 0.00 97 1027.6
20190115112329 27 169 4.0 7.0 0.00 0.00 0.00 97 1027.6
20190115111311 27 153 4.0 6.0 0.00 0.00 0.00 96 1027.8
20190115110315 27 145 3.0 7.0 0.00 0.00 0.00 97 1027.9
20190115105318 26 132 3.0 5.0 0.00 0.00 0.00 96 1028.0
20190115104324 26 132 3.0 5.0 0.00 0.00 0.00 96 1028.0
20190115103326 26 157 3.0 5.0 0.00 0.00 0.00 96 1028.2
20190115102329 27 145 2.0 5.0 0.00 0.00 0.00 96 1028.3
20190115101311 27 136 2.0 5.0 0.00 0.00 0.00 96 1028.6
20190115095321 28 157 2.0 6.0 0.00 0.00 0.00 96 1028.6
20190115094324 28 155 3.0 6.0 0.00 0.00 0.00 96 1028.7
20190115093326 28 163 3.0 6.0 0.00 0.00 0.00 96 1028.7
20190115092313 28 137 4.0 7.0 0.00 0.00 0.00 96 1028.7
20190115091313 28 138 3.0 8.0 0.00 0.00 0.00 96 1028.7
20190115090316 28 146 3.0 7.0 0.00 0.00 0.00 96 1028.6
20190115085319 28 139 3.0 8.0 0.00 0.00 0.00 96 1028.6
20190115084321 27 145 5.0 9.0 0.00 0.00 0.00 97 1028.3
20190115083310 26 137 4.0 5.0 0.00 0.00 0.00 96 1028.3
20190115082321 26 129 4.0 5.0 0.00 0.00 0.00 96 1028.4
20190115081325 27 124 4.0 5.0 0.00 0.00 0.00 96 1028.4
20190115080329 27 137 3.0 5.0 0.00 0.00 0.00 96 1028.4
20190115075315 27 144 2.0 4.0 0.00 0.00 0.00 96 1028.6
20190115074318 28 134 2.0 3.0 0.00 0.00 0.00 96 1028.7
20190115073317 27 147 2.0 5.0 0.00 0.00 0.00 96 1028.8
20190115072321 27 143 3.0 4.0 0.00 0.00 0.00 96 1028.8
20190115071316 27 139 2.0 4.0 0.00 0.00 0.00 95 1028.9
20190115070321 27 137 2.0 4.0 0.00 0.00 0.00 95 1029.0
20190115065329 27 137 2.0 4.0 0.00 0.00 0.00 95 1029.1
20190115064315 27 139 2.0 4.0 0.00 0.00 0.00 95 1029.2
20190115063326 28 140 2.0 5.0 0.00 0.00 0.00 95 1029.2
20190115062315 28 156 2.0 5.0 0.00 0.00 0.00 95 1029.3
20190115061326 28 136 2.0 4.0 0.00 0.00 0.00 95 1029.5
20190115060326 29 159 3.0 6.0 0.00 0.00 0.00 95 1029.5
20190115055329 29 156 2.0 5.0 0.00 0.00 0.00 95 1029.9
20190115054330 29 153 3.0 6.0 0.00 0.00 0.00 95 1030.0
20190115053313 29 154 3.0 5.0 0.00 0.00 0.00 95 1030.1
20190115051319 29 184 3.0 7.0 0.00 0.00 0.00 95 1030.2
20190115050325 29 148 3.0 5.0 0.00 0.00 0.00 95 1030.3
20190115045325 29 134 2.0 5.0 0.00 0.00 0.00 94 1030.2
20190115044328 29 150 3.0 6.0 0.00 0.00 0.00 95 1030.2
20190115043313 29 148 3.0 6.0 0.00 0.00 0.00 95 1030.2
20190115042315 29 157 3.0 6.0 0.00 0.00 0.00 95 1030.0
20190115041317 29 155 3.0 7.0 0.00 0.00 0.00 95 1029.8
20190115040318 28 132 3.0 5.0 0.00 0.00 0.00 95 1029.8
20190115035323 28 141 3.0 7.0 0.00 0.00 0.00 94 1029.7
20190115034329 29 119 3.0 6.0 0.00 0.00 0.00 94 1029.6
20190115033310 29 115 3.0 6.0 0.00 0.00 0.00 94 1029.6
20190115032311 29 113 3.0 6.0 0.00 0.00 0.00 93 1029.6
20190115031318 29 127 3.0 6.0 0.00 0.00 0.00 93 1029.8
20190115030325 29 127 3.0 4.0 0.00 0.00 0.00 93 1029.8
20190115025329 30 126 2.0 3.0 0.00 0.00 0.00 93 1030.0
20190115024312 30 128 2.0 3.0 0.00 0.00 0.00 92 1030.0
20190115023314 30 128 2.0 3.0 0.00 0.00 0.00 92 1030.0
20190115022322 31 148 2.0 3.0 0.00 0.00 0.00 91 1030.0
20190115021325 31 148 2.0 3.0 0.00 0.00 0.00 90 1030.1
20190115020326 32 151 2.0 2.0 0.00 0.00 0.00 90 1030.1
20190115015311 33 151 1.0 3.0 0.00 0.00 0.00 90 1030.2
20190115014318 33 151 2.0 3.0 0.00 0.00 0.00 89 1030.0
20190115013319 33 148 2.0 5.0 0.00 0.00 0.00 89 1030.0
20190115012321 34 162 3.0 4.0 0.00 0.00 0.00 89 1030.1